Weather History for Walla Walla, WA

Change the Weather History Date:

Thursday, February 7, 2013

  Actual Average Record
Temperature  
Mean Temperature 44 °F -  
Max Temperature 52 °F 40 °F 59 °F (1998)
Min Temperature 36 °F 29 °F 0 °F (1989)
Degree Days  
Heating Degree Days 20    
Moisture  
Dew Point 31 °F    
Average Humidity 60    
Maximum Humidity 81    
Minimum Humidity 37    
Precipitation  
Precipitation 0.02 in - - ()
Sea Level Pressure  
Sea Level Pressure 29.97 in    
Wind  
Wind Speed 9 mph (South)    
Max Wind Speed 18 mph    
Max Gust Speed 29 mph    
Visibility 10 miles    
Events Rain    
Averages and records for this station are not official NWS values.
T = Trace of Precipitation, MM = Missing Value Source: NWS Daily Summary

Daily Weather History Graph

Daily Weather History Graph

Search for Another Location

Airport:

Trip Planner

Search our weather history database for the weather conditions in past years. The results will help you decide how hot, cold, wet, or windy it might be!

Date:

Astronomy

Feb. 07, 2013 Rise Set
Actual Time 7:07 AM PST 5:07 PM PST
Civil Twilight 6:35 AM PST 5:39 PM PST
Nautical Twilight 6:00 AM PST 6:14 PM PST
Astronomical Twilight 5:25 AM PST 6:49 PM PST
Moon 4:56 AM PST (2/7) 2:33 PM PST (2/7)
Length of Visible Light 11h 03m
Length of Day
10h 00m
Waning Crescent, 8% of the Moon is Illuminated
Feb 7
Waning Crescent
Feb 9
New
Feb 17
First Quarter
Feb 25
Full
Mar 4
Last Quarter

Hourly Weather History & Observations

Time (PST) Temp. Windchill Dew Point Humidity Pressure Visibility Wind Dir Wind Speed Gust Speed Precip Events Conditions
12:53 AM 50.0 °F - 26.1 °F 39% 29.86 in 10.0 mi Calm Calm - N/A   Clear
1:53 AM 48.0 °F - 27.0 °F 44% 29.87 in 10.0 mi Calm Calm - N/A   Clear
2:33 AM 51.8 °F - 26.6 °F 38% 29.86 in 10.0 mi SSE 17.3 mph 28.8 mph N/A   Mostly Cloudy
2:53 AM 52.0 °F - 26.1 °F 37% 29.86 in 10.0 mi South 18.4 mph 25.3 mph N/A   Overcast
3:53 AM 52.0 °F - 27.0 °F 38% 29.86 in 10.0 mi South 16.1 mph 21.9 mph N/A   Overcast
4:53 AM 48.9 °F - 30.0 °F 48% 29.91 in 10.0 mi SW 12.7 mph - N/A   Overcast
5:53 AM 48.9 °F - 28.9 °F 46% 29.91 in 10.0 mi South 11.5 mph - N/A   Overcast
6:53 AM 46.9 °F - 32.0 °F 56% 29.94 in 10.0 mi WSW 12.7 mph - N/A   Overcast
7:01 AM 44.6 °F 37.4 °F 32.0 °F 61% 29.92 in 10.0 mi West 16.1 mph - N/A   Overcast
7:53 AM 45.0 °F 38.9 °F 32.0 °F 60% 29.96 in 10.0 mi SSW 12.7 mph - N/A   Overcast
8:53 AM 43.0 °F 36.0 °F 34.0 °F 71% 29.99 in 10.0 mi SSW 13.8 mph - N/A   Overcast
9:53 AM 42.1 °F 34.9 °F 35.1 °F 76% 30.00 in 10.0 mi SSW 13.8 mph - 0.00 in Rain Light Rain
10:16 AM 41.0 °F 34.3 °F 35.6 °F 81% 30.00 in 6.0 mi WSW 11.5 mph - 0.01 in Rain Light Rain
10:42 AM 42.8 °F 38.0 °F 35.6 °F 76% 30.00 in 10.0 mi SSE 8.1 mph - 0.02 in Rain Light Rain
10:53 AM 43.0 °F 37.7 °F 34.0 °F 71% 30.01 in 10.0 mi South 9.2 mph - 0.02 in   Overcast
11:53 AM 45.0 °F 39.3 °F 32.0 °F 60% 29.99 in 10.0 mi South 11.5 mph - N/A   Overcast
12:53 PM 44.1 °F 38.1 °F 32.0 °F 63% 29.99 in 10.0 mi SSW 11.5 mph - N/A   Overcast
1:53 PM 44.1 °F 38.6 °F 30.9 °F 60% 29.98 in 10.0 mi SSW 10.4 mph - N/A   Overcast
2:53 PM 44.1 °F 40.8 °F 30.9 °F 60% 29.99 in 10.0 mi SSW 5.8 mph - N/A   Overcast
3:53 PM 43.0 °F 38.2 °F 30.9 °F 62% 29.99 in 10.0 mi SSW 8.1 mph - N/A   Mostly Cloudy
4:53 PM 42.1 °F 37.7 °F 30.9 °F 65% 30.00 in 10.0 mi WSW 6.9 mph - N/A   Overcast
5:53 PM 42.1 °F 40.2 °F 30.9 °F 65% 30.02 in 10.0 mi SSE 3.5 mph - N/A   Overcast
6:53 PM 42.1 °F 39.2 °F 30.9 °F 65% 30.04 in 10.0 mi SE 4.6 mph - N/A   Overcast
7:53 PM 41.0 °F 35.2 °F 30.0 °F 65% 30.04 in 10.0 mi ESE 9.2 mph - N/A   Overcast
8:53 PM 39.9 °F 33.4 °F 30.0 °F 68% 30.05 in 10.0 mi ESE 10.4 mph - N/A   Overcast
9:53 PM 39.9 °F 33.9 °F 28.9 °F 65% 30.06 in 10.0 mi ESE 9.2 mph - N/A   Mostly Cloudy
10:53 PM 37.0 °F 31.6 °F 28.9 °F 73% 30.07 in 10.0 mi ESE 6.9 mph - N/A   Partly Cloudy
11:53 PM 36.0 °F 30.3 °F 28.0 °F 73% 30.09 in 10.0 mi ESE 6.9 mph - N/A   Mostly Cloudy